Location: Gollag?dem
(17.0207°N, 80.7261°E)
Time: 17:14:18
(UTC+00:00)

IRS-1C - Pass Details

Date: 03 August 2024
Orbit: 814 x 815 km, 99.0° (Epoch: 11 September)

Event Time Altitude Azimuth Distance (km) Brightness Sun altitude
Rises 23:42:23 0° 11° (N) 3,331 7.8 -8.8°
Reaches altitude 10° 23:44:44 10° 10° (N) 2,398 7.0 -8.3°
Maximum altitude 23:50:02 82° 284° (WNW) 824 4.1 -7.1°
Drops below altitude 10° 23:55:20 10° 196° (SSW) 2,394 6.2 -5.9°
Sets 23:57:40 0° 196° (SSW) 3,324 7.0 -5.4°
